Tracking 35237 objects as of 4-Sep-2026
HD Live streaming from Space Station
objects crossing your sky now

STARLINK-11255

Track STARLINK-11255 now!
10-day predictions
STARLINK-11255 is classified as:


NORAD ID: 60730
Int'l Code: 2024-152L
Launch date: August 28, 2024
Source: United States (US)
Launch site: AIR FORCE EASTERN TEST RANGE (AFETR)
Your satellite tracking list
Your tracking list is empty




NASA's NSSDC Master Catalog

Two Line Element Set (TLE):
1 60730U 24152L   26247.56981760 -.00000177  00000-0  33988-5 0  9995
2 60730  53.1598 314.1887 0000937  83.4941 276.6184 15.69704696116947
Source of the keplerian elements: AFSPC